Time,TemperatureF,DewpointF,PressureIn,WindDirection,WindDirectionDegrees,WindSpeedMPH,WindSpeedGustMPH,Humidity,HourlyPrecipIn,Conditions,Clouds,dailyrainin,SolarRadiationWatts/m^2,SoftwareType,DateUTC
2013-02-14 00:01:00,26.0,22.0,-100.00,North,2,4.0,8.0,85,0.00,,,0.00,0.000000,,2013-02-14 06:01:00,
2013-02-14 00:22:00,26.0,22.0,-100.00,North,2,4.0,8.0,85,0.00,,,0.00,0.000000,,2013-02-14 06:22:00,
2013-02-14 00:32:00,26.0,22.0,-100.00,North,2,4.0,8.0,85,0.00,,,0.00,0.000000,,2013-02-14 06:32:00,
2013-02-14 00:42:00,26.0,22.0,-100.00,North,2,4.0,8.0,85,0.00,,,0.00,0.000000,,2013-02-14 06:42:00,
2013-02-14 00:52:00,26.0,22.0,-100.00,North,2,4.0,8.0,85,0.00,,,0.00,0.000000,,2013-02-14 06:52:00,
2013-02-14 01:01:00,25.0,21.0,-100.00,NNW,340,3.0,5.0,83,0.00,,,0.00,0.000000,,2013-02-14 07:01:00,
2013-02-14 01:32:00,25.0,21.0,-100.00,NNW,340,3.0,5.0,83,0.00,,,0.00,0.000000,,2013-02-14 07:32:00,
2013-02-14 01:42:00,25.0,21.0,-100.00,NNW,340,3.0,5.0,83,0.00,,,0.00,0.000000,,2013-02-14 07:42:00,
2013-02-14 01:52:00,25.0,21.0,-100.00,NNW,340,3.0,5.0,83,0.00,,,0.00,0.000000,,2013-02-14 07:52:00,
2013-02-14 02:01:00,25.0,21.0,-100.00,North,10,2.0,5.0,83,0.00,,,0.00,0.000000,,2013-02-14 08:01:00,
2013-02-14 02:32:00,25.0,21.0,-100.00,North,10,2.0,5.0,83,0.00,,,0.00,0.000000,,2013-02-14 08:32:00,
2013-02-14 02:43:00,25.0,21.0,-100.00,North,10,2.0,5.0,83,0.00,,,0.00,0.000000,,2013-02-14 08:43:00,
2013-02-14 02:52:00,25.0,21.0,-100.00,North,10,2.0,5.0,83,0.00,,,0.00,0.000000,,2013-02-14 08:52:00,
2013-02-14 03:01:00,25.0,21.0,-100.00,NNE,24,2.0,8.0,84,0.00,,,0.00,0.000000,,2013-02-14 09:01:00,
2013-02-14 03:32:00,25.0,21.0,-100.00,NNE,24,2.0,8.0,84,0.00,,,0.00,0.000000,,2013-02-14 09:32:00,
2013-02-14 03:42:00,25.0,21.0,-100.00,NNE,24,2.0,8.0,84,0.00,,,0.00,0.000000,,2013-02-14 09:42:00,
2013-02-14 03:52:00,25.0,21.0,-100.00,NNE,24,2.0,8.0,84,0.00,,,0.00,0.000000,,2013-02-14 09:52:00,
2013-02-14 04:01:00,24.0,20.0,-100.00,NNE,25,2.0,5.0,86,0.00,,,0.00,0.000000,,2013-02-14 10:01:00,
2013-02-14 04:22:00,24.0,20.0,-100.00,NNE,25,2.0,5.0,86,0.00,,,0.00,0.000000,,2013-02-14 10:22:00,
2013-02-14 04:32:00,24.0,20.0,-100.00,NNE,25,2.0,5.0,86,0.00,,,0.00,0.000000,,2013-02-14 10:32:00,
2013-02-14 04:42:00,24.0,20.0,-100.00,NNE,25,2.0,5.0,86,0.00,,,0.00,0.000000,,2013-02-14 10:42:00,
2013-02-14 04:52:00,24.0,20.0,-100.00,NNE,25,2.0,5.0,86,0.00,,,0.00,0.000000,,2013-02-14 10:52:00,
2013-02-14 05:01:00,25.0,21.0,-100.00,NNE,14,3.0,6.0,84,0.00,,,0.00,0.000000,,2013-02-14 11:01:00,
2013-02-14 05:32:00,25.0,21.0,-100.00,NNE,14,3.0,6.0,84,0.00,,,0.00,0.000000,,2013-02-14 11:32:00,
2013-02-14 05:42:00,25.0,21.0,-100.00,NNE,14,3.0,6.0,84,0.00,,,0.00,0.000000,,2013-02-14 11:42:00,
2013-02-14 05:52:00,25.0,21.0,-100.00,NNE,14,3.0,6.0,84,0.00,,,0.00,0.000000,,2013-02-14 11:52:00,
2013-02-14 06:01:00,25.0,20.0,-100.00,North,357,2.0,7.0,82,0.00,,,0.00,0.000000,,2013-02-14 12:01:00,
2013-02-14 06:32:00,25.0,20.0,-100.00,North,357,2.0,7.0,82,0.00,,,0.00,0.000000,,2013-02-14 12:32:00,
2013-02-14 06:42:00,25.0,20.0,-100.00,North,357,2.0,7.0,82,0.00,,,0.00,0.000000,,2013-02-14 12:42:00,
2013-02-14 06:53:00,25.0,20.0,-100.00,North,357,2.0,7.0,82,0.00,,,0.00,0.000000,,2013-02-14 12:53:00,
2013-02-14 07:01:00,25.0,19.0,-100.00,North,356,3.0,7.0,79,0.00,,,0.00,0.000000,,2013-02-14 13:01:00,
2013-02-14 07:32:00,25.0,19.0,-100.00,North,356,3.0,7.0,79,0.00,,,0.00,0.000000,,2013-02-14 13:32:00,
2013-02-14 07:42:00,25.0,19.0,-100.00,North,356,3.0,7.0,79,0.00,,,0.00,0.000000,,2013-02-14 13:42:00,
2013-02-14 07:52:00,25.0,19.0,-100.00,North,356,3.0,7.0,79,0.00,,,0.00,0.000000,,2013-02-14 13:52:00,
2013-02-14 08:01:00,26.0,19.0,-100.00,North,360,4.0,8.0,74,0.00,,,0.00,4.000000,,2013-02-14 14:01:00,
2013-02-14 08:21:00,26.0,19.0,-100.00,North,360,4.0,8.0,74,0.00,,,0.00,4.000000,,2013-02-14 14:21:00,
2013-02-14 08:32:00,26.0,19.0,-100.00,North,360,4.0,8.0,74,0.00,,,0.00,4.000000,,2013-02-14 14:32:00,
2013-02-14 08:42:00,26.0,19.0,-100.00,North,360,4.0,8.0,74,0.00,,,0.00,4.000000,,2013-02-14 14:42:00,
2013-02-14 08:52:00,26.0,19.0,-100.00,North,360,4.0,8.0,74,0.00,,,0.00,4.000000,,2013-02-14 14:52:00,
2013-02-14 09:01:00,26.0,20.0,-100.00,North,359,5.0,9.0,79,0.00,,,0.00,16.000000,,2013-02-14 15:01:00,
2013-02-14 09:32:00,26.0,20.0,-100.00,North,359,5.0,9.0,79,0.00,,,0.00,16.000000,,2013-02-14 15:32:00,
2013-02-14 09:42:00,26.0,20.0,-100.00,North,359,5.0,9.0,79,0.00,,,0.00,16.000000,,2013-02-14 15:42:00,
2013-02-14 09:52:00,26.0,20.0,-100.00,North,359,5.0,9.0,79,0.00,,,0.00,16.000000,,2013-02-14 15:52:00,
2013-02-14 10:01:00,26.0,22.0,-100.00,NE,46,6.0,13.0,84,0.00,,,0.00,78.000000,,2013-02-14 16:01:00,
2013-02-14 10:22:00,26.0,22.0,-100.00,NE,46,6.0,13.0,84,0.00,,,0.00,78.000000,,2013-02-14 16:22:00,
2013-02-14 10:32:00,26.0,22.0,-100.00,NE,46,6.0,13.0,84,0.00,,,0.00,78.000000,,2013-02-14 16:32:00,
2013-02-14 10:42:00,26.0,22.0,-100.00,NE,46,6.0,13.0,84,0.00,,,0.00,78.000000,,2013-02-14 16:42:00,
2013-02-14 10:52:00,26.0,22.0,-100.00,NE,46,6.0,13.0,84,0.00,,,0.00,78.000000,,2013-02-14 16:52:00,
2013-02-14 11:01:00,26.0,18.0,-100.00,NE,47,8.0,15.0,72,0.00,,,0.00,206.000000,,2013-02-14 17:01:00,
2013-02-14 11:32:00,26.0,18.0,-100.00,NE,47,8.0,15.0,72,0.00,,,0.00,206.000000,,2013-02-14 17:32:00,
2013-02-14 11:42:00,26.0,18.0,-100.00,NE,47,8.0,15.0,72,0.00,,,0.00,206.000000,,2013-02-14 17:42:00,
2013-02-14 11:52:00,26.0,18.0,-100.00,NE,47,8.0,15.0,72,0.00,,,0.00,206.000000,,2013-02-14 17:52:00,
2013-02-14 12:01:00,24.0,18.0,-100.00,ENE,57,8.0,17.0,78,0.00,,,0.00,166.000000,,2013-02-14 18:01:00,
2013-02-14 12:32:00,24.0,18.0,-100.00,ENE,57,8.0,17.0,78,0.00,,,0.00,166.000000,,2013-02-14 18:32:00,
2013-02-14 12:42:00,24.0,18.0,-100.00,ENE,57,8.0,17.0,78,0.00,,,0.00,166.000000,,2013-02-14 18:42:00,
2013-02-14 12:52:00,24.0,18.0,-100.00,ENE,57,8.0,17.0,78,0.00,,,0.00,166.000000,,2013-02-14 18:52:00,
2013-02-14 13:01:00,23.0,17.0,-100.00,NE,56,8.0,16.0,78,0.00,,,0.00,146.000000,,2013-02-14 19:01:00,
2013-02-14 13:32:00,23.0,17.0,-100.00,NE,56,8.0,16.0,78,0.00,,,0.00,146.000000,,2013-02-14 19:32:00,
2013-02-14 13:42:00,23.0,17.0,-100.00,NE,56,8.0,16.0,78,0.00,,,0.00,146.000000,,2013-02-14 19:42:00,
2013-02-14 13:52:00,23.0,17.0,-100.00,NE,56,8.0,16.0,78,0.00,,,0.00,146.000000,,2013-02-14 19:52:00,
2013-02-14 14:01:00,22.0,16.0,-100.00,NNE,32,7.0,16.0,77,0.00,,,0.00,138.000000,,2013-02-14 20:01:00,
2013-02-14 14:22:00,22.0,16.0,-100.00,NNE,32,7.0,16.0,77,0.00,,,0.00,138.000000,,2013-02-14 20:22:00,
2013-02-14 14:32:00,22.0,16.0,-100.00,NNE,32,7.0,16.0,77,0.00,,,0.00,138.000000,,2013-02-14 20:32:00,
2013-02-14 14:42:00,22.0,16.0,-100.00,NNE,32,7.0,16.0,77,0.00,,,0.00,138.000000,,2013-02-14 20:42:00,
2013-02-14 14:52:00,22.0,16.0,-100.00,NNE,32,7.0,16.0,77,0.00,,,0.00,138.000000,,2013-02-14 20:52:00,
2013-02-14 15:01:00,20.0,15.0,-100.00,North,3,7.0,14.0,81,0.00,,,0.00,93.000000,,2013-02-14 21:01:00,
2013-02-14 15:32:00,20.0,15.0,-100.00,North,3,7.0,14.0,81,0.00,,,0.00,93.000000,,2013-02-14 21:32:00,
2013-02-14 15:42:00,20.0,15.0,-100.00,North,3,7.0,14.0,81,0.00,,,0.00,93.000000,,2013-02-14 21:42:00,
2013-02-14 15:52:00,20.0,15.0,-100.00,North,3,7.0,14.0,81,0.00,,,0.00,93.000000,,2013-02-14 21:52:00,
2013-02-14 16:01:00,18.0,13.0,-100.00,NNW,344,7.0,15.0,79,0.00,,,0.00,89.000000,,2013-02-14 22:01:00,
2013-02-14 16:21:00,18.0,13.0,-100.00,NNW,344,7.0,15.0,79,0.00,,,0.00,89.000000,,2013-02-14 22:21:00,
2013-02-14 16:32:00,18.0,13.0,-100.00,NNW,344,7.0,15.0,79,0.00,,,0.00,89.000000,,2013-02-14 22:32:00,
2013-02-14 16:42:00,18.0,13.0,-100.00,NNW,344,7.0,15.0,79,0.00,,,0.00,89.000000,,2013-02-14 22:42:00,
2013-02-14 16:52:00,18.0,13.0,-100.00,NNW,344,7.0,15.0,79,0.00,,,0.00,89.000000,,2013-02-14 22:52:00,
2013-02-14 17:01:00,17.0,13.0,-100.00,NNW,336,6.0,14.0,83,0.00,,,0.00,25.000000,,2013-02-14 23:01:00,
2013-02-14 17:32:00,17.0,13.0,-100.00,NNW,336,6.0,14.0,83,0.00,,,0.00,25.000000,,2013-02-14 23:32:00,
2013-02-14 17:42:00,17.0,13.0,-100.00,NNW,336,6.0,14.0,83,0.00,,,0.00,25.000000,,2013-02-14 23:42:00,
2013-02-14 17:52:00,17.0,13.0,-100.00,NNW,336,6.0,14.0,83,0.00,,,0.00,25.000000,,2013-02-14 23:52:00,
2013-02-14 18:01:00,16.0,11.0,-100.00,NNW,336,5.0,12.0,80,0.00,,,0.00,2.000000,,2013-02-15 00:01:00,
2013-02-14 18:32:00,16.0,11.0,-100.00,NNW,336,5.0,12.0,80,0.00,,,0.00,2.000000,,2013-02-15 00:32:00,
2013-02-14 18:42:00,16.0,11.0,-100.00,NNW,336,5.0,12.0,80,0.00,,,0.00,2.000000,,2013-02-15 00:42:00,
2013-02-14 18:52:00,16.0,11.0,-100.00,NNW,336,5.0,12.0,80,0.00,,,0.00,2.000000,,2013-02-15 00:52:00,
2013-02-14 19:01:00,16.0,9.0,-100.00,NW,323,3.0,10.0,74,0.00,,,0.00,0.000000,,2013-02-15 01:01:00,
2013-02-14 19:32:00,16.0,9.0,-100.00,NW,323,3.0,10.0,74,0.00,,,0.00,0.000000,,2013-02-15 01:32:00,
2013-02-14 19:42:00,16.0,9.0,-100.00,NW,323,3.0,10.0,74,0.00,,,0.00,0.000000,,2013-02-15 01:42:00,
2013-02-14 19:52:00,16.0,9.0,-100.00,NW,323,3.0,10.0,74,0.00,,,0.00,0.000000,,2013-02-15 01:52:00,
2013-02-14 20:01:00,16.0,8.0,-100.00,NNW,336,3.0,7.0,70,0.00,,,0.00,0.000000,,2013-02-15 02:01:00,
2013-02-14 20:21:00,16.0,8.0,-100.00,NNW,336,3.0,7.0,70,0.00,,,0.00,0.000000,,2013-02-15 02:21:00,
2013-02-14 20:32:00,16.0,8.0,-100.00,NNW,336,3.0,7.0,70,0.00,,,0.00,0.000000,,2013-02-15 02:32:00,
2013-02-14 20:42:00,16.0,8.0,-100.00,NNW,336,3.0,7.0,70,0.00,,,0.00,0.000000,,2013-02-15 02:42:00,
2013-02-14 20:52:00,16.0,8.0,-100.00,NNW,336,3.0,7.0,70,0.00,,,0.00,0.000000,,2013-02-15 02:52:00,
2013-02-14 21:01:00,16.0,8.0,-100.00,North,351,4.0,8.0,69,0.00,,,0.00,0.000000,,2013-02-15 03:01:00,
2013-02-14 21:32:00,16.0,8.0,-100.00,North,351,4.0,8.0,69,0.00,,,0.00,0.000000,,2013-02-15 03:32:00,
2013-02-14 21:42:00,16.0,8.0,-100.00,North,351,4.0,8.0,69,0.00,,,0.00,0.000000,,2013-02-15 03:42:00,
2013-02-14 21:52:00,16.0,8.0,-100.00,North,351,4.0,8.0,69,0.00,,,0.00,0.000000,,2013-02-15 03:52:00,
2013-02-14 22:01:00,17.0,8.0,-100.00,North,349,6.0,16.0,68,0.00,,,0.00,0.000000,,2013-02-15 04:01:00,
2013-02-14 22:22:00,17.0,8.0,-100.00,North,349,6.0,16.0,68,0.00,,,0.00,0.000000,,2013-02-15 04:22:00,
2013-02-14 22:32:00,17.0,8.0,-100.00,North,349,6.0,16.0,68,0.00,,,0.00,0.000000,,2013-02-15 04:32:00,
2013-02-14 22:42:00,17.0,8.0,-100.00,North,349,6.0,16.0,68,0.00,,,0.00,0.000000,,2013-02-15 04:42:00,
2013-02-14 22:52:00,17.0,8.0,-100.00,North,349,6.0,16.0,68,0.00,,,0.00,0.000000,,2013-02-15 04:52:00,
2013-02-14 23:01:00,16.0,7.0,-100.00,NNW,336,4.0,14.0,67,0.00,,,0.00,0.000000,,2013-02-15 05:01:00,
2013-02-14 23:32:00,16.0,7.0,-100.00,NNW,336,4.0,14.0,67,0.00,,,0.00,0.000000,,2013-02-15 05:32:00,
2013-02-14 23:42:00,16.0,7.0,-100.00,NNW,336,4.0,14.0,67,0.00,,,0.00,0.000000,,2013-02-15 05:42:00,
2013-02-14 23:52:00,16.0,7.0,-100.00,NNW,336,4.0,14.0,67,0.00,,,0.00,0.000000,,2013-02-15 05:52:00,